Temperature
20 20 20 19 19 19 19 18 18 18 17 17 17 17 16 16 16 17 16 16 16 16 16 16 16 15 15 15 15 15 15 15 14 13 12 12 12 12 12 12 12 12 12
21 20 20 20 19 19 18 18 18 18 17 17 17 17 16 16 16 16 16 16 16 16 15 15 15 15 15 15 15 15 14 14 14 13 12 12 12 12 12 11 11 11 11
21 20 20 20 19 19 18 18 18 17 17 17 17 16 16 16 16 16 16 16 15 15 15 15 15 15 15 14 14 14 14 14 14 13 12 12 12 11 11 11 11 11 11
21 20 20 19 19 19 18 18 18 17 17 17 16 16 16 16 16 15 15 15 15 15 15 15 15 14 14 14 14 14 14 13 13 13 12 12 11 11 11 11 11 11 10
21 20 20 19 19 19 18 18 18 17 16 16 16 16 16 15 15 15 15 15 15 15 14 14 14 14 14 14 14 13 13 13 13 13 12 12 11 11 11 11 11 11 10
21 20 20 20 19 19 18 18 17 17 16 16 16 15 15 15 15 15 15 15 14 14 14 14 14 14 14 14 14 13 13 13 13 13 12 12 11 11 11 11 11 11 10
21 20 20 20 19 19 18 17 17 17 16 16 15 15 15 15 15 15 15 14 14 14 14 13 13 13 13 13 13 13 13 13 12 12 12 12 11 11 11 11 10 10 10
21 20 20 20 19 18 18 17 17 16 16 16 15 15 15 15 15 15 14 14 13 13 13 13 13 13 13 13 12 12 12 12 12 12 12 11 11 11 11 10 10 10 10
20 20 20 20 19 18 18 17 17 16 16 15 15 15 15 15 15 14 14 14 13 13 13 13 13 12 13 12 12 12 12 12 12 11 11 11 11 11 11 10 10 10 10
20 20 20 19 19 18 18 17 17 16 16 15 15 15 14 14 14 14 14 13 13 13 13 13 13 12 12 12 12 11 11 11 11 11 11 11 11 10 10 10 10 10 10
20 19 19 19 18 18 17 17 16 16 15 15 15 15 14 14 14 14 14 13 13 13 13 12 12 12 12 12 11 11 11 11 11 11 11 10 10 10 10 10 10 10 10
19 19 19 18 18 17 17 16 16 16 15 15 14 14 14 14 14 14 13 13 13 12 12 12 12 12 12 12 11 11 11 11 11 11 11 11 10 10 10 9 9 9 9
19 18 18 17 17 17 16 16 16 15 15 14 14 14 14 14 14 13 13 13 13 12 12 12 12 12 11 11 11 11 11 11 11 11 11 10 10 10 9 9 9 9 9
18 18 17 17 16 16 16 16 15 15 15 14 14 14 14 13 13 13 13 13 12 12 12 12 11 11 11 11 11 11 10 10 10 10 10 10 10 10 9 9 9 9 9
18 17 17 16 16 16 15 15 15 15 15 14 14 14 14 13 13 13 13 13 12 12 12 11 11 11 11 11 11 10 10 10 10 10 10 10 10 10 9 9 9 9 10
17 17 16 16 16 15 15 15 15 14 14 14 14 14 14 14 13 13 13 13 12 12 12 11 11 11 11 11 11 11 10 10 10 10 10 10 10 10 10 9 9 9 10
17 17 16 16 15 15 15 15 14 14 14 14 14 14 13 13 13 13 13 12 12 11 11 11 11 11 11 11 11 11 10 10 10 10 10 10 10 10 10 10 9 10 10
16 16 16 15 15 15 15 15 14 14 14 14 14 14 13 13 13 12 12 12 11 11 11 11 11 11 11 11 11 11 10 10 10 10 10 10 10 10 10 10 10 9 9
15 15 15 15 15 15 15 14 15 14 14 14 14 14 13 13 12 12 12 12 12 12 11 11 11 11 11 11 10 10 10 10 10 9 9 9 9 9 9 9 9 9 9
15 15 15 14 14 14 14 14 14 14 14 14 14 13 13 13 12 12 12 12 12 12 11 11 11 11 11 10 10 10 10 10 10 9 9 9 9 9 9 9 9 9 9
15 14 14 14 14 14 14 14 14 14 14 14 13 13 13 13 13 12 12 12 12 11 11 11 11 10 10 10 10 10 10 10 9 9 9 9 9 9 9 9 9 9 9
14 14 14 14 14 13 13 14 14 14 14 13 13 13 13 12 12 12 12 12 12 11 11 11 11 10 10 10 10 10 9 9 9 9 9 9 9 9 9 9 9 8 8
13 13 13 13 13 13 13 13 13 13 13 13 13 12 12 12 12 12 12 12 11 11 11 10 10 10 10 10 9 9 9 9 9 9 9 9 8 8 8 8 8 8 8
13 13 13 13 13 13 13 13 13 13 13 13 12 12 12 12 12 12 12 11 11 11 11 10 10 10 10 9 9 9 9 9 9 8 8 8 8 8 8 8 8 8 8
13 13 13 13 13 12 12 12 12 12 12 12 12 12 12 12 12 11 11 11 11 11 10 10 10 10 9 9 9 9 9 8 8 8 8 8 8 7 7 7 7 7 7
13 13 13 13 12 12 12 12 12 12 12 12 12 12 12 11 11 11 11 11 11 10 10 10 10 9 9 9 9 8 8 8 8 8 8 7 7 7 7 7 7 7 7
Wind_Speed
9 8 7 6 6 5 4 3 2 2 1 1 1 1 2 2 2 2 2 2 2 2 1 1 1 1 0 1 2 2 2 3 5 3 4 5 5 7 8 9 10 10 12
9 9 8 7 6 5 5 4 3 2 2 2 1 1 2 2 2 2 2 2 2 2 2 2 2 1 1 1 2 3 3 4 6 7 5 5 5 6 7 6 8 9 11
10 9 8 8 7 6 5 5 4 3 2 2 2 2 2 2 2 2 2 3 3 3 3 3 3 3 3 3 2 3 4 5 5 7 6 5 5 6 7 6 7 6 9
11 10 9 8 7 7 6 5 4 4 3 3 3 2 2 2 2 3 3 4 4 4 4 4 4 3 3 3 3 4 5 6 6 7 7 6 5 6 5 5 5 5 5
11 10 9 8 7 7 6 6 5 4 4 4 4 3 3 2 3 3 3 4 4 4 4 4 5 6 6 4 3 4 5 5 6 7 7 6 6 5 5 4 5 5 5
11 10 10 9 9 8 7 6 5 5 4 4 4 4 3 3 6 4 2 3 3 4 4 5 5 5 7 7 7 7 5 5 5 6 6 6 6 6 5 4 4 4 3
11 11 10 10 10 9 8 7 6 6 5 5 4 4 4 5 5 3 3 2 3 4 4 3 4 5 4 6 7 7 7 6 3 3 5 5 6 6 5 5 4 3 2
12 11 11 11 10 9 8 8 7 6 6 6 5 5 4 5 5 4 1 3 4 4 4 4 4 5 5 4 5 6 5 4 3 3 4 3 4 4 4 4 5 5 4
12 12 12 11 11 10 9 9 7 7 6 6 5 5 5 5 5 3 2 4 4 4 4 4 3 4 4 2 4 5 5 5 7 8 7 6 6 4 3 4 4 4 4
12 12 11 11 10 10 10 9 8 7 7 6 6 5 5 5 6 3 4 3 4 4 4 4 4 4 4 1 3 4 5 5 5 6 6 6 7 6 5 3 3 3 3
10 10 10 10 10 10 9 9 9 8 7 6 6 6 5 5 7 5 3 2 3 3 3 3 4 6 3 1 1 3 4 3 5 5 5 5 5 5 5 3 2 2 2
9 10 10 10 9 9 10 9 8 8 8 7 7 6 5 6 6 6 4 2 1 3 3 3 5 6 4 1 1 4 2 3 4 4 4 4 4 3 3 3 2 1 1
9 10 10 10 9 9 10 10 8 8 7 7 7 7 6 6 7 8 7 4 2 2 2 5 6 6 6 4 5 4 4 4 3 3 3 3 3 3 3 3 4 4 3
9 9 9 9 9 9 8 8 8 8 8 8 8 7 7 7 7 7 7 7 6 5 4 6 7 6 4 3 5 5 4 3 2 3 3 3 3 4 4 4 4 4 4
8 8 9 9 8 8 7 5 6 6 6 7 7 8 7 7 6 6 6 7 6 6 5 5 5 5 5 5 5 4 4 4 4 3 3 3 4 4 4 4 4 4 4
8 8 7 8 8 8 7 6 2 1 3 3 2 3 4 5 9 9 6 4 4 5 5 6 6 6 6 5 5 5 5 4 4 4 4 4 4 4 4 4 4 5 4
6 7 7 7 8 8 8 7 6 4 3 4 4 4 4 7 10 10 9 7 7 7 7 6 6 6 6 6 6 5 5 5 4 4 4 4 5 5 4 4 4 4 4
6 6 6 7 7 7 7 7 7 7 7 6 7 8 9 9 10 10 10 9 7 8 8 7 7 7 6 6 6 5 5 5 5 5 5 5 5 5 5 5 5 5 5
6 5 5 5 6 7 7 7 8 8 7 7 6 7 9 9 10 9 11 8 8 9 9 8 7 7 7 6 6 6 6 6 5 6 6 6 6 6 5 5 5 4 6
5 6 6 6 6 6 7 7 8 8 8 7 7 7 8 8 8 8 10 9 9 8 8 8 7 7 7 6 6 6 6 6 6 7 6 6 6 6 6 7 6 6 6
5 6 7 7 6 6 7 7 7 7 7 7 7 7 9 9 9 9 10 10 9 8 8 8 7 7 7 7 7 7 8 7 6 6 6 6 6 6 6 6 6 6 6
5 5 6 6 6 6 7 7 7 7 7 7 6 6 10 9 8 8 9 9 9 9 8 8 7 7 7 7 7 7 8 8 7 7 7 7 6 7 7 7 7 6 6
6 6 6 6 6 6 7 7 7 8 7 7 7 7 8 9 8 8 8 8 8 8 8 8 7 7 6 7 7 7 7 7 6 6 6 6 7 7 7 7 7 7 7
6 6 6 6 6 7 7 7 7 8 7 7 8 8 8 8 8 8 8 8 8 8 8 8 8 8 9 8 8 8 6 6 7 7 7 7 7 7 7 7 7 7 7
6 6 6 6 6 7 7 7 7 7 7 7 7 7 7 7 8 8 8 7 8 7 8 8 8 8 10 10 8 7 6 6 5 5 6 6 7 6 6 7 6 7 7
6 6 6 6 6 6 6 7 7 7 7 7 6 7 7 7 7 6 6 6 6 6 7 7 8 9 9 9 9 8 8 8 7 6 6 5 5 5 6 6 7 7 7
Wind_Direction
182 181 177 176 176 176 173 174 177 170 150 135 93 72 58 44 39 41 38 39 53 56 47 52 30 25 122 189 173 169 152 144 139 131 118 118 119 115 113 112 109 104 94
178 177 177 176 176 178 173 170 165 154 144 127 110 92 82 68 56 56 50 48 53 56 52 56 50 64 73 98 141 141 133 139 143 141 139 135 126 127 124 121 111 105 103
174 176 176 177 177 178 171 162 155 149 145 134 121 108 91 78 69 63 65 69 65 58 53 57 57 65 73 83 104 120 130 136 141 143 143 140 140 138 135 122 112 108 110
175 177 178 179 177 172 166 160 158 158 153 144 135 120 106 87 74 76 77 76 74 68 62 60 59 64 74 94 107 119 128 134 136 139 141 145 141 142 142 137 130 126 116
176 177 176 172 165 162 162 163 163 163 155 143 136 124 114 109 81 74 87 88 85 84 76 70 68 66 58 58 87 115 132 139 143 142 145 148 148 155 154 150 142 133 118
176 175 169 166 165 167 165 163 159 155 148 143 143 133 122 91 70 44 44 95 94 93 88 83 89 87 87 78 69 71 79 131 143 149 152 154 159 160 156 159 152 150 142
175 172 169 169 169 168 164 159 156 154 149 143 140 129 113 96 92 73 38 96 105 95 91 91 91 90 99 101 104 111 87 71 89 157 153 159 162 166 165 159 154 147 133
176 175 174 173 171 168 167 163 160 155 151 148 147 145 138 124 119 116 109 123 106 103 102 99 100 101 89 96 115 109 105 98 101 132 134 142 142 155 171 168 165 162 156
180 180 178 175 172 172 172 167 162 160 160 161 157 158 149 138 135 146 216 138 122 115 107 97 105 112 78 42 123 120 115 113 91 83 87 103 106 120 158 177 179 187 172
185 182 178 175 176 176 169 165 164 166 167 168 158 158 156 151 146 171 237 168 142 138 126 115 82 87 95 2 137 132 131 128 127 125 124 140 146 155 182 208 207 211 193
181 176 175 175 175 172 166 167 167 170 169 171 163 163 164 159 157 173 248 196 161 158 149 141 116 107 106 16 283 127 119 140 151 153 154 157 161 167 182 188 233 264 262
172 174 175 175 174 168 167 170 172 172 173 174 174 176 171 167 167 170 187 226 296 166 165 145 124 129 133 167 143 105 131 213 175 168 170 173 174 174 169 174 182 278 333
171 175 176 177 175 171 172 173 176 183 189 187 185 185 180 172 164 163 175 183 222 190 143 93 118 151 168 164 154 169 200 203 185 182 182 181 176 158 169 179 180 187 199
174 175 176 176 175 174 179 181 186 192 197 196 195 194 184 179 179 178 181 181 182 185 167 144 156 178 199 150 165 190 211 207 214 202 189 179 175 182 198 206 204 202 205
175 177 179 179 179 180 183 188 195 202 210 211 202 195 191 190 180 172 187 186 188 178 173 179 184 183 188 187 191 194 198 190 203 205 200 200 200 200 204 216 229 234 235
178 179 184 183 181 182 178 180 148 195 171 203 259 213 181 148 143 153 167 164 149 155 189 194 197 204 203 199 197 193 197 200 204 206 212 216 217 218 216 215 225 235 245
181 185 187 186 183 184 183 185 188 178 156 181 193 191 176 156 159 166 170 168 168 175 200 206 206 210 214 211 209 207 203 196 206 215 216 218 224 227 225 225 229 240 248
183 183 189 189 187 188 190 192 193 192 190 195 192 188 183 179 177 176 168 167 184 197 213 215 214 215 217 219 217 214 212 204 206 219 221 225 229 234 234 234 233 243 253
187 186 190 191 193 195 194 196 199 199 199 195 185 178 184 181 178 181 180 203 203 202 208 214 218 219 215 213 216 218 218 218 218 225 228 230 234 238 241 243 242 223 251
190 186 196 196 199 203 201 204 205 203 203 202 199 190 177 181 190 189 200 211 215 211 210 212 215 218 216 216 215 216 218 218 217 226 231 229 234 239 241 244 251 250 247
192 191 195 197 201 205 208 212 212 212 210 211 210 194 185 200 205 203 203 208 214 215 211 213 213 215 216 219 221 219 222 224 224 229 232 233 238 241 248 249 247 252 258
202 199 206 210 207 208 212 216 218 216 214 214 209 189 183 212 215 212 210 209 211 216 214 212 216 216 218 218 219 223 226 227 228 230 234 235 234 237 241 245 247 251 253
213 209 209 211 213 208 214 220 220 218 217 216 212 203 198 212 219 218 213 212 212 213 213 212 216 218 217 220 221 222 227 230 231 235 241 242 243 242 243 244 247 253 253
216 215 215 213 213 216 218 221 223 223 223 221 219 213 210 212 220 220 217 214 212 211 211 212 215 215 213 216 219 217 215 224 233 231 235 244 244 245 244 245 248 253 255
216 213 216 218 217 220 223 226 229 227 226 223 222 222 219 215 216 220 221 219 217 216 213 211 211 211 213 213 211 205 186 190 219 241 231 237 242 245 249 251 253 256 256
223 219 220 223 221 221 223 226 228 227 225 224 222 223 224 221 217 216 217 218 216 214 213 208 206 203 204 206 203 193 182 182 194 226 236 230 233 240 245 248 251 253 254
Height
1540 1542 1543 1544 1545 1546 1546 1547 1547 1547 1546 1546 1546 1545 1544 1544 1543 1542 1541 1540 1539 1539 1538 1538 1537 1537 1538 1538 1539 1540 1540 1542 1542 1544 1546 1547 1548 1549 1550 1550 1551 1551 1551
1538 1540 1542 1543 1544 1545 1546 1546 1546 1546 1546 1545 1545 1544 1544 1543 1542 1541 1540 1539 1539 1538 1537 1537 1536 1537 1537 1537 1538 1538 1539 1540 1542 1543 1545 1547 1548 1549 1550 1550 1551 1552 1551
1536 1538 1540 1541 1542 1543 1544 1544 1545 1544 1544 1544 1544 1543 1542 1542 1541 1540 1539 1538 1538 1537 1537 1536 1536 1536 1536 1537 1537 1538 1538 1540 1541 1542 1544 1546 1547 1549 1550 1550 1551 1552 1552
1534 1536 1538 1539 1540 1541 1542 1543 1543 1543 1543 1543 1542 1542 1541 1541 1540 1539 1539 1538 1538 1537 1537 1536 1536 1536 1536 1536 1537 1537 1538 1539 1541 1542 1544 1546 1547 1548 1550 1550 1551 1552 1552
1531 1534 1535 1537 1538 1539 1540 1541 1541 1541 1541 1541 1541 1540 1540 1540 1539 1539 1538 1538 1538 1537 1537 1537 1536 1536 1537 1537 1537 1538 1539 1540 1541 1542 1544 1545 1547 1548 1549 1550 1551 1551 1551
1529 1531 1532 1534 1536 1537 1538 1538 1539 1539 1539 1539 1540 1539 1539 1539 1538 1538 1538 1538 1538 1538 1537 1537 1537 1537 1537 1537 1537 1538 1539 1540 1541 1542 1543 1544 1546 1547 1548 1549 1550 1551 1551
1525 1527 1529 1531 1533 1534 1535 1536 1537 1537 1537 1537 1538 1538 1538 1538 1538 1538 1538 1538 1538 1538 1538 1538 1539 1538 1538 1538 1538 1538 1539 1540 1541 1542 1543 1544 1545 1546 1547 1548 1549 1550 1550
1522 1524 1526 1528 1529 1531 1532 1534 1534 1536 1536 1536 1537 1538 1537 1537 1538 1538 1538 1538 1538 1538 1538 1538 1539 1539 1539 1538 1539 1539 1539 1540 1540 1541 1542 1543 1544 1545 1546 1547 1548 1548 1549
1518 1521 1523 1524 1526 1528 1530 1531 1533 1533 1534 1535 1536 1536 1537 1537 1537 1537 1538 1538 1538 1538 1539 1539 1539 1539 1539 1539 1539 1539 1540 1540 1540 1541 1541 1542 1543 1544 1545 1547 1547 1548 1548
1515 1517 1520 1521 1523 1525 1527 1528 1530 1531 1533 1534 1534 1535 1536 1536 1537 1537 1537 1538 1538 1539 1538 1539 1539 1539 1539 1539 1539 1540 1540 1540 1541 1541 1542 1542 1543 1544 1544 1545 1546 1547 1547
1513 1515 1517 1519 1521 1523 1524 1526 1527 1529 1530 1532 1533 1533 1534 1535 1535 1536 1536 1537 1538 1538 1539 1539 1539 1539 1539 1539 1539 1540 1540 1540 1541 1542 1542 1542 1543 1543 1544 1544 1545 1546 1546
1509 1512 1514 1516 1518 1520 1522 1524 1525 1527 1528 1529 1530 1532 1532 1533 1534 1534 1535 1536 1536 1537 1538 1538 1538 1538 1538 1539 1539 1539 1540 1540 1542 1542 1542 1543 1543 1543 1543 1544 1543 1543 1543
1506 1508 1511 1513 1515 1517 1519 1521 1522 1524 1526 1527 1529 1530 1531 1531 1532 1533 1533 1534 1535 1535 1536 1536 1537 1537 1538 1538 1539 1539 1539 1540 1541 1542 1542 1542 1542 1542 1542 1542 1542 1542 1542
1502 1505 1508 1510 1511 1513 1516 1518 1520 1521 1523 1524 1526 1527 1528 1529 1530 1530 1531 1532 1533 1534 1534 1535 1535 1536 1537 1537 1537 1538 1539 1540 1540 1540 1541 1541 1541 1541 1541 1541 1542 1541 1541
1499 1502 1505 1506 1509 1510 1512 1514 1516 1518 1519 1521 1523 1524 1525 1526 1527 1528 1529 1530 1531 1532 1532 1533 1534 1535 1535 1536 1536 1536 1537 1538 1538 1539 1539 1539 1540 1540 1540 1540 1540 1540 1540
1496 1498 1501 1503 1505 1507 1508 1510 1512 1514 1514 1516 1518 1520 1521 1523 1523 1524 1526 1527 1528 1529 1530 1531 1532 1533 1533 1534 1534 1535 1535 1536 1536 1537 1537 1538 1538 1538 1538 1538 1538 1538 1538
1493 1495 1497 1499 1501 1503 1504 1507 1508 1509 1510 1512 1514 1515 1517 1518 1520 1521 1523 1524 1525 1525 1527 1528 1529 1530 1531 1531 1532 1532 1533 1533 1534 1534 1535 1535 1536 1536 1536 1536 1536 1536 1535
1491 1492 1493 1495 1497 1499 1501 1503 1505 1506 1507 1508 1510 1511 1513 1515 1517 1518 1519 1520 1521 1521 1523 1524 1525 1527 1527 1528 1529 1530 1530 1531 1531 1532 1532 1533 1533 1533 1533 1533 1533 1533 1533
1487 1489 1490 1491 1493 1495 1497 1498 1500 1502 1504 1506 1506 1507 1509 1511 1512 1513 1514 1515 1516 1517 1518 1520 1521 1523 1524 1525 1525 1526 1527 1528 1528 1529 1529 1530 1530 1530 1530 1530 1530 1530 1530
1483 1485 1486 1488 1490 1491 1492 1494 1496 1498 1499 1501 1503 1504 1505 1506 1507 1508 1509 1510 1512 1513 1514 1516 1517 1518 1519 1521 1522 1523 1524 1524 1525 1525 1526 1526 1527 1527 1527 1527 1527 1527 1526
1480 1482 1483 1484 1486 1488 1490 1492 1493 1494 1495 1497 1499 1500 1501 1502 1503 1504 1505 1505 1506 1508 1510 1511 1513 1514 1515 1516 1517 1518 1519 1520 1520 1521 1522 1522 1522 1523 1523 1523 1523 1523 1522
1478 1479 1480 1481 1482 1484 1486 1488 1489 1490 1491 1493 1494 1495 1496 1498 1499 1499 1500 1501 1502 1503 1505 1506 1508 1509 1510 1511 1512 1513 1514 1515 1515 1516 1517 1517 1518 1518 1518 1518 1518 1518 1518
1475 1476 1477 1478 1480 1481 1483 1484 1486 1487 1488 1489 1490 1491 1491 1492 1493 1494 1495 1496 1497 1498 1500 1501 1502 1503 1504 1505 1506 1507 1508 1509 1510 1511 1512 1512 1513 1514 1514 1514 1514 1514 1513
1472 1473 1474 1475 1476 1478 1479 1481 1482 1483 1484 1484 1486 1486 1487 1487 1488 1489 1490 1491 1492 1492 1494 1495 1496 1497 1498 1499 1500 1501 1502 1504 1505 1506 1506 1507 1508 1508 1509 1509 1509 1509 1509
1468 1469 1470 1471 1472 1474 1475 1476 1477 1478 1479 1480 1481 1482 1482 1482 1483 1484 1485 1485 1486 1487 1488 1489 1490 1491 1492 1493 1494 1495 1496 1497 1499 1500 1501 1502 1502 1503 1503 1504 1504 1504 1504
1465 1466 1467 1468 1469 1470 1471 1472 1473 1474 1475 1475 1476 1477 1477 1478 1478 1479 1479 1479 1480 1481 1482 1483 1483 1484 1485 1487 1488 1489 1490 1491 1493 1494 1495 1496 1497 1498 1498 1499 1499 1499 1499